Regional Weather Roundup
Issued by NWS Jackson, KY

Home | Current Version | Previous Version | Graphics & Text | Print | Product List | Glossary On
Versions: 1 2 3 4 5 6 7 8 9 10 11 12 13 14 15 16 17 18 19 20 21 22 23 24 25 26 27 28 29 30 31 32 33 34 35 36 37 38 39 40 41 42 43 44 45 46 47 48 49 50
000
ASUS43 KJKL 291410
RWRJKL

EAST KENTUCKY HOURLY WEATHER ROUNDUP
NATIONAL WEATHER SERVICE JACKSON KY
1000 AM EDT WED MAR 29 2017

NOTE: "FAIR" INDICATES FEW OR NO CLOUDS BELOW 12,000 FEET WITH
NO SIGNIFICANT WEATHER AND/OR OBSTRUCTIONS TO VISIBILITY.

* THESE REPORTS ARE NOT UNDER NWS QUALITY CONTROL AND MAY NOT
  REPORT WEATHER SUCH AS PRECIPITATION AND FOG.

KYZ079-080-083-085-087-088-110-112-115-119-120-291500
...EASTERN KENTUCKY...

CITY           SKY/WX    TMP DP  RH WIND       PRES   REMARKS
JACKSON        CLOUDY    53  48  83 CALM      30.13R
LONDON         CLOUDY    56  50  80 NE6       30.11S
SOMERSET*      CLOUDY    57  50  77 E8        30.12S
MONTICELLO*    MOSUNNY   60  54  80 VRB3      30.11S
WILLIAMSBURG*  PTSUNNY   59  55  88 E3        30.10S
MIDDLESBORO*   SUNNY     57  53  85 CALM      30.11S
HARLAN APT*    CLOUDY    57  50  77 N3        30.12R
PIKE CO APT*   CLOUDY    53  52  95 NE3       30.14R
BIG SANDY APT* CLOUDY    54  50  87 E6        30.15R
MOREHEAD APT*  CLOUDY    52  45  76 VRB7G14   30.17R
ASHLAND*       CLOUDY    48  45  87 E3        30.17R
$$

KYZ035-036-041-042-044-050-067-078-099-291500
...CENTRAL KENTUCKY...

CITY           SKY/WX    TMP DP  RH WIND       PRES   REMARKS
MT STERLING*   CLOUDY    50  45  81 E8        30.17R
FLEMING/MASON* CLOUDY    46  39  77 NE10      30.19R
DANVILLE*      CLOUDY    52  46  82 E7        30.14R
LEXINGTON      CLOUDY    52  45  77 NE10      30.15R
FRANKFORT      CLOUDY    51  43  74 NE9       30.15R
LOUISVILLE     CLOUDY    57  46  66 NE10      30.13R
LEBANON*       CLOUDY    54  48  82 E9        30.13R
GLASGOW*       SUNNY     57  54  89 E9        30.09S FOG
BOWLING GREEN  SUNNY     59  53  80 E12       30.08S
$$

KYZ091>093-OHZ055-061-077-WVZ005-015-034-035-042-291500
...SOUTHERN OHIO/WEST VIRGINIA...

CITY           SKY/WX    TMP DP  RH WIND       PRES   REMARKS
COVINGTON      MOSUNNY   48  38  68 NE13      30.18R
COLUMBUS       PTSUNNY   47  39  74 E12       30.22R
DAYTON         CLOUDY    43  39  86 NE9       30.22S
WILMINGTON     CLOUDY    42  39  89 E9        30.20R
HUNTINGTON     CLOUDY    50  44  80 NE10      30.16S
CHARLESTON     CLOUDY    50  43  77 N5        30.16S
PINEVILLE*     CLOUDY    56  48  74 MISG      30.18S
BECKLEY        CLOUDY    50  44  80 N5        30.15R
LOGAN CO APT*  CLOUDY    52  46  82 CALM      30.14S
$$

VAZ002-007-008-TNZ017-027-036-066-071-291500
...SOUTHWEST VIRGINIA/EAST TENNESSEE...

CITY           SKY/WX    TMP DP  RH WIND       PRES   REMARKS
WISE*          CLOUDY    54  54 100 NE6       30.14S
JONESVILLE*      N/A     59  52  77 CALM      30.13F
ABINGDON*      SUNNY     60  52  74 NE7       30.11S
BRISTOL        MOSUNNY   59  53  80 S3        30.11R
MORRISTOWN*    SUNNY     61  54  77 NE8G15    30.08S
SEVIERVILLE*   SUNNY     55  52  88 CALM      30.08S
KNOXVILLE      MOSUNNY   59  52  77 NE6       30.07S
LAFOLLETTE*    SUNNY     59  54  82 CALM      30.12S
OAK RIDGE      SUNNY     63  53  70 NE8       30.09S
CROSSVILLE     FOG       52  52 100 VRB5      30.09S VSB 1/4
NASHVILLE      MOSUNNY   60  55  83 E9        30.05F
$$

...KEY TO REMARKS...
VSB - VISIBILITY IN MILES
WCI - WIND CHILL INDEX
HX  - HEAT INDEX

$$



USA.gov is the U.S. government's official web portal to all federal, state and local government web resources and services.